This is the latest recevied weather packets stored in our database for station/object KQ4UPF. If no packets are shown the sender has not sent any weather packets the latest 10 day(s).
| Time | Temp. | Humidity | Pressure | Rain* | Wind** | Luminosity | Snow |
|---|---|---|---|---|---|---|---|
| 1777941527 | 17.22° C | 68% | 1013.6 hPa | 0 mm | - | 2 W/m² | - |
| 1777941224 | 17.78° C | 66% | 1013.5 hPa | 0 mm | - | 3 W/m² | - |
| 1777940920 | 17.78° C | 66% | 1013.4 hPa | 0 mm | - | 6 W/m² | - |
| 1777940617 | 18.33° C | 67% | 1013.2 hPa | 0 mm | - | 9 W/m² | - |
| 1777940315 | 18.89° C | 67% | 1013.3 hPa | 0 mm | - | 13 W/m² | - |
| 1777940012 | 18.89° C | 61% | 1013.4 hPa | 0 mm | - | 17 W/m² | - |
| 1777939709 | 19.44° C | 62% | 1013.4 hPa | 0 mm | - | 21 W/m² | - |
| 1777939407 | 19.44° C | 62% | 1013.1 hPa | 0 mm | - | 25 W/m² | - |
| 1777939103 | 20° C | 59% | 1013.3 hPa | 0 mm | - | 29 W/m² | - |
| 1777938801 | 20.56° C | 57% | 1013.2 hPa | 0 mm | - | 28 W/m² | - |
| 1777938497 | 20.56° C | 59% | 1013.2 hPa | 0 mm | - | 37 W/m² | - |
| 1777938195 | 21.67° C | 57% | 1013.2 hPa | 0 mm | - | 42 W/m² | - |
| 1777937891 | 22.78° C | 55% | 1013.4 hPa | 0 mm | - | 46 W/m² | - |
| 1777937587 | 22.22° C | 51% | 1013.2 hPa | 0 mm | - | 53 W/m² | - |
| 1777937284 | 21.67° C | 47% | 1013.4 hPa | 0 mm | - | 57 W/m² | - |
| 1777936981 | 22.22° C | 51% | 1013.2 hPa | 0 mm | - | 61 W/m² | - |
| 1777936678 | 22.78° C | 49% | 1013.4 hPa | 0 mm | - | 63 W/m² | - |
| 1777936374 | 23.33° C | 44% | 1013.1 hPa | 0 mm | - | 63 W/m² | - |
| 1777936070 | 23.33° C | 42% | 1013.2 hPa | 0 mm | - | 65 W/m² | - |
| 1777935768 | 22.78° C | 44% | 1013.3 hPa | 0 mm | - | 63 W/m² | - |
| 1777935467 | 23.89° C | 49% | 1013.4 hPa | 0 mm | - | 70 W/m² | - |
| 1777935163 | 25° C | 40% | 1013.4 hPa | 0 mm | - | 121 W/m² | - |
| 1777934860 | 25° C | 40% | 1013.5 hPa | 0 mm | - | 186 W/m² | - |
| 1777934557 | 25° C | 45% | 1013.5 hPa | 0 mm | - | 233 W/m² | - |
| 1777934253 | 25.56° C | 39% | 1013.6 hPa | 0 mm | - | 259 W/m² | - |
* Rain latest hour (hover to see other rain measurements)
** Current wind speed in m/s (hover to see current wind gust speed)